Location: Limoges
(45.8354°N, 1.2645°E)
Time: 16:46:22
(UTC+01:00)

ISS - Pass Details

Date: 14 November 2025
Orbit: 416 x 420 km, 51.6° (Epoch: 12 December)

Event Time Altitude Azimuth Distance (km) Brightness Sun altitude
Rises 18:51:52 0° 223° (SW) 2,359 1.0 -15.2°
Reaches altitude 10° 18:54:01 10° 216° (SW) 1,496 -0.3 -15.6°
Maximum altitude 18:57:13 42° 144° (SE) 608 -3.2 -16.1°
Enters shadow 18:57:53 37° 111° (ESE) 671 -3.2 -16.2°
